Miscellaneous Local Product
Issued by NWS North Platte, NE

Home | Current Version | Previous Version | Graphics & Text | Print | Product List | Glossary On
Versions: 1 2 3 4 5 6 7 8 9 10 11 12 13 14 15 16 17 18 19 20 21 22 23 24 25 26 27 28 29 30 31 32 33 34 35 36 37 38 39 40 41 42 43 44 45 46 47 48 49 50
159
AXUS43 KLBF 300010
MISLBF


WESTERN AND NORTH CENTRAL NEBRASKA HOURLY WEATHER ROUNDUP
NATIONAL WEATHER SERVICE NORTH PLATTE NE
700 PM CDT FRI JUL 29 2016

NOTE: "FAIR" INDICATES FEW OR NO CLOUDS BELOW 12,000 FEET WITH NO
SIGNIFICANT WEATHER AND/OR OBSTRUCTIONS TO VISIBILITY.

NOTE: STATIONS NOT REPORTING VARIABLES SUCH AS SKY/WEATHER OR
PRESSURE ARE PROVIDED BY RAWS AND APRS NETWORKS AND ARE NOT UNDER
NATIONAL WEATHER SERVICE QUALITY CONTROL.

...OBSERVATIONS IN AND NEAR THE EASTERN PANHANDLE OF NEBRASKA...

CITY           SKY/WX    TMP DP  RH WIND       PRES   REMARKS
PINE RIDGE     CLOUDY    76  58  53 SE9       30.02F
CHADRON        LGT RAIN  75  63  66 S17       29.97F
ALLIANCE       CLOUDY    74  59  59 SE13      30.06R
SIDNEY         CLOUDY    76  57  51 SE15      30.11R
$$

...OBSERVATIONS IN NORTHERN NEBRASKA AND FAR SOUTHERN SOUTH DAKOTA...

CITY           SKY/WX    TMP DP  RH WIND       PRES   REMARKS
WINNER         FAIR      79  57  46 SE8       30.02F
VALENTINE      CLOUDY    78  60  53 SE12      30.03S
THEDFORD       PTSUNNY   78  60  53 SE5       30.05F
AINSWORTH      MOSUNNY   75  62  64 SE8       30.05S
O`NEILL        SUNNY     78  51  39 SE5       30.04F
ORD            SUNNY     77  59  53 E5        30.02F
BROKEN BOW     CLOUDY    75  65  70 E3        30.04F
VALENTINE NWR    N/A     78  60  54 SE7         N/A
BUTTE            N/A     77  57  50 E7          N/A
HALSEY           N/A     76  60  56 E7          N/A
EWING            N/A     78  61  55 CALM        N/A
$$

...OBSERVATIONS IN SOUTHWEST NEBRASKA AND FAR NORTHEAST COLORADO...

CITY           SKY/WX    TMP DP  RH WIND       PRES   REMARKS
WRAY           FAIR      79  52  38 S7        30.09S
HOLYOKE        FAIR      79  63  57 S5        30.10R
IMPERIAL       MOSUNNY   80  59  48 SE6       30.06S
OGALLALA       CLOUDY    78  60  53 SE3       30.06S
NORTH PLATTE   MOSUNNY   78  66  66 CALM      30.04S
MCCOOK         SUNNY     85  56  37 E6        30.02F
LEXINGTON      MOSUNNY   78  65  63 E6        30.04S
STAPLETON        N/A     78  60  54 CALM        N/A
GOTHENBURG       N/A     79  61  54 E5          N/A
CALLAWAY         N/A     79  64  60 E3          N/A
$$

...OBSERVATIONS IN CENTRAL LINCOLN COUNTY AREA...

CITY           SKY/WX    TMP DP  RH WIND       PRES   REMARKS
N.P. AIRPORT   MOSUNNY   78  66  66 CALM      30.04S
N.P. DOWNTOWN    N/A     80  61  51 CALM        N/A
N.P. HILLCREST   N/A     78  62  57 SE3         N/A
$$

...SOME OBSERVATIONS FROM AROUND THE REGION...

CITY           SKY/WX    TMP DP  RH WIND       PRES   REMARKS
DENVER         MOSUNNY   85  55  35 SE28      30.06S
LARAMIE        CLOUDY    76  50  40 E14G23    30.18R
CHEYENNE       CLOUDY    69  57  65 SE13      30.16R
SCOTTSBLUFF    LGT RAIN  66  61  84 SE17      30.04F
RAPID CITY     CLOUDY    76  57  51 SW9       30.03S
BISMARCK       SUNNY     80  62  54 S13       29.98F
PIERRE         MOSUNNY   81  54  39 S13       29.97F
SIOUX FALLS    MOSUNNY   77  57  50 E7        30.03S
OMAHA          MOSUNNY   79  63  57 NE10      29.99F
GRAND ISLAND   MOSUNNY   79  60  52 NE8       30.04S
KANSAS CITY    MOSUNNY   81  62  52 N8        29.97F
WICHITA        MOSUNNY   87  66  49 N8        29.96F
OKLAHOMA CITY  MOSUNNY   85  64  49 NE9       29.96F
DALLAS         MOSUNNY   94  67  41 SW8       29.89F HX  97
AMARILLO       SUNNY     89  61  38 SE15G22   30.02F
DODGE CITY     MOSUNNY   85  60  42 CALM      30.01F
HAYS           MOSUNNY   86  61  42 E7        29.98F
GOODLAND       SUNNY     78  61  55 SE8       30.08F
$$




USA.gov is the U.S. government's official web portal to all federal, state and local government web resources and services.